Location: Bathurst
(33.4193°S, 149.5775°E)
Time: 00:37:19
(UTC+10:00)

Vanguard 3 - Visible Passes

Search period start: 23 June 2021 00:00
Search period end: 03 July 2021 00:00
Orbit: 508 x 3261 km, 33.3° (Epoch: 21 June)

Date Brightness Start Highest point End Pass type
(mag) Time Alt. Az. Time Alt. Az. Time Alt. Az.
23 Jun 10.2 17:14:38 10° WNW 17:31:49 75° NNE 17:51:25 10° ESE visible
23 Jun 9.8 19:29:40 10° W 19:49:40 90° SW 19:55:58 55° E visible
23 Jun 10.2 21:47:02 10° WSW 22:00:30 51° W 22:00:30 51° W visible
24 Jun 10.1 18:13:14 10° WNW 18:31:45 87° N 18:45:53 25° E visible
24 Jun 9.7 20:29:26 10° W 20:49:50 86° NNW 20:50:26 85° NNE visible
24 Jun 10.9 22:47:20 10° WSW 22:54:59 28° W 22:54:59 28° W visible
25 Jun 10.2 16:57:45 10° WNW 17:14:06 78° NNE 17:34:14 10° E visible
25 Jun 9.9 19:12:29 10° W 19:32:03 90° N 19:40:24 46° E visible
25 Jun 10.1 21:29:24 10° WSW 21:44:57 59° W 21:44:57 59° W visible
25 Jun 11.4 23:48:18 10° W 23:49:30 12° W 23:49:30 12° W visible
26 Jun 10.1 17:56:18 10° W 18:14:05 88° N 18:30:24 20° E visible
26 Jun 9.7 20:12:04 10° W 20:32:14 84° NNW 20:34:57 73° NE visible
26 Jun 10.7 22:29:39 10° WSW 22:39:30 34° W 22:39:30 34° W visible
27 Jun 10.0 18:55:25 10° W 19:14:24 89° N 19:25:00 38° E visible
27 Jun 10.0 21:11:52 10° WSW 21:29:33 65° WNW 21:29:33 65° WNW visible
27 Jun 11.3 23:30:46 10° W 23:34:07 16° W 23:34:07 16° W visible
28 Jun 10.1 17:39:30 10° W 17:56:28 89° N 18:15:07 14° E visible
28 Jun 9.8 19:54:49 10° W 20:14:34 81° NNW 20:19:40 60° ENE visible
28 Jun 10.6 22:12:03 10° WSW 22:24:14 39° WNW 22:24:14 39° WNW visible
29 Jun 10.0 18:38:27 10° W 18:56:44 88° N 19:09:52 29° E visible
29 Jun 9.9 20:54:26 10° WSW 21:14:06 65° NNW 21:14:26 65° NNW visible
29 Jun 11.2 23:13:22 10° W 23:19:00 20° W 23:19:00 20° W visible
30 Jun 10.1 17:22:48 10° W 17:38:54 90° NE 17:59:18 10° E visible
30 Jun 10.0 19:37:39 10° W 19:56:49 78° NNW 20:04:43 47° NE visible
30 Jun 10.5 21:54:34 10° WSW 22:09:18 43° WNW 22:09:18 43° WNW visible
01 Jul 10.0 18:21:36 10° W 18:39:05 87° N 18:55:07 21° ENE visible
01 Jul 10.0 20:37:07 10° WSW 20:56:18 61° NNW 20:59:42 56° N visible
01 Jul 11.1 22:56:09 10° W 23:04:18 22° WNW 23:04:18 22° WNW visible
02 Jul 10.0 17:06:12 10° W 17:21:24 90° SE 17:41:52 10° E visible
02 Jul 10.1 19:20:36 10° WSW 19:39:04 75° NNW 19:50:15 34° NE visible
02 Jul 10.5 21:37:15 10° W 21:54:51 42° NW 21:54:51 42° NW visible
